This demonstration page uses our WeatherBlox Daily Observations layout. Learn more.

Left ArrowRight Arrow

39.92423, -83.80882

Hourly Observations for March 23, 2020

Temp ( °F °C ) Dew Point ( °F °C ) Humidity (%) Winds ( mph kmh ) Pressure ( in mb ) Visibility ( mi km ) Precip ( " mm )
12:56 am 00:56 Cloudy 39 3.9 37 2.8 93 93 E 7 11 30.19 1022 10 16.0934 0 0
1:18 am 01:18 Cloudy 39 4 37 3 93 93 E 6 9 30.2 1023 10 16.0934 0 0
1:56 am 01:56 Cloudy with Light Rain 40 4.4 38 3.3 93 93 E 5 7 30.17 1022 9 14.48406 0.001 0.001
2:56 am 02:56 Cloudy with Light Rain 39 3.9 39 3.9 100 100 E 3 6 30.14 1021 4 6.43736 0.001 0.001
3:29 am 03:29 Cloudy with Light Rain 37 3 37 3 100 100 E 6 9 30.14 1021 2 3.21868 0.001 0.001
3:46 am 03:46 Cloudy with Light Rain 39 4 39 4 100 100 E 6 9 30.12 1020 3 4.82802 0.001 0.001
3:53 am 03:53 Cloudy with Light Rain 39 4 39 4 100 100 E 5 7 30.12 1020 2.5 4.02335 0.001 0.001
3:56 am 03:56 Cloudy with Light Rain 39 3.9 39 3.9 100 100 ESE 6 9 30.1 1019 3 4.82802 0.001 0.001
4:25 am 04:25 Cloudy with Light Rain 39 4 39 4 100 100 E 5 7 30.09 1019 3 4.82802 0.001 0.001
4:56 am 04:56 Cloudy with Light Rain 39 3.9 39 3.9 100 100 E 5 7 30.07 1018 4 6.43736 0.001 0.001
5:44 am 05:44 Cloudy with Light Rain 39 4 39 4 100 100 Calm 30.07 1018 2.5 4.02335 0.001 0.001
5:56 am 05:56 Cloudy with Light Rain 39 3.9 39 3.9 100 100 Calm 30.06 1018 2 3.21868 0.001 0.001
6:19 am 06:19 Cloudy with Light Rain 39 4 39 4 100 100 NNE 3 6 30.08 1018 1.75 2.816345 0.001 0.001
6:54 am 06:54 Cloudy with Light Rain 39 4 39 4 100 100 Calm 30.09 1019 2 3.21868 0.001 0.001
6:56 am 06:56 Cloudy with Light Rain 39 3.9 39 3.9 100 100 Calm 30.07 1018 2 3.21868 0.001 0.001
7:24 am 07:24 Cloudy with Light Rain 39 4 39 4 100 100 Calm 30.09 1019 2.5 4.02335 0.001 0.001
7:47 am 07:47 Cloudy with Light Rain 39 4 39 4 100 100 Calm 30.1 1019 1.25 2.011675 0.74 18.796
7:53 am 07:53 Cloudy with Mist and Fog 39 4 39 4 100 100 Calm 30.1 1019 0.75 1.207005 0.86 21.844
7:54 am 07:54 Cloudy with Mist and Fog 40 4.4 40 4.4 100 100 Calm 30.09 1019 0.75 1.207005 0.88 22.352
8:14 am 08:14 Cloudy with Mist and Fog 39 4 39 4 100 100 W 3 6 30.11 1020 0.75 1.207005 0.02 0.508
8:38 am 08:38 Cloudy with Light Rain 39 4 39 4 100 100 W 6 9 30.13 1020 1 1.60934 0.13 3.302
8:56 am 08:56 Cloudy with Light Rain 40 4.4 40 4.4 100 100 WNW 8 13 30.12 1020 1.25 2.011675 0.17 4.318
9:13 am 09:13 Cloudy with Mist and Fog 39 4 39 4 100 100 WNW 7 11 30.13 1020 2.5 4.02335 0.09 2.286
9:28 am 09:28 Cloudy with Mist and Fog 39 4 39 4 100 100 WNW 8 13 30.13 1020 3 4.82802 0.09 2.286
9:35 am 09:35 Cloudy with Light Rain 41 5 41 5 100 100 WNW 8 13 30.12 1020 3 4.82802 0.09 2.286
9:56 am 09:56 Cloudy with Mist and Fog 41 5 41 5 100 100 WNW 9 15 30.12 1020 5 8.0467 0.09 2.286
10:54 am 10:54 Cloudy 43 6 43 6 100 100 NW 13 20 30.13 1020 10 16.0934 0.46 11.684
10:56 am 10:56 Cloudy 42 5.6 41 5 96 96 NW 10 17 30.13 1020 10 16.0934 0.61 15.494
11:56 am 11:56 Cloudy 42 5.6 41 5 96 96 NW 8 13 30.13 1020 9 14.48406 1.43 36.322
12:56 pm 12:56 Cloudy 44 6.7 41 5 89 89 NW 9 15 30.14 1021 10 16.0934 0.05 1.27
1:12 pm 13:12 Cloudy 45 7 39 4 81 81 WNW 12 19 30.14 1021 10 16.0934 0 0
1:56 pm 13:56 Cloudy 45 7.2 40 4.4 83 83 NW 12 19 30.14 1021 9 14.48406 0.09 2.286
2:56 pm 14:56 Cloudy 44 6.7 39 3.9 83 83 NW 8 13 30.13 1020 9 14.48406 0 0
3:56 pm 15:56 Cloudy 44 6.7 39 3.9 83 83 NW 10 17 30.13 1020 9 14.48406 0 0
4:56 pm 16:56 Cloudy 44 6.7 39 3.9 83 83 WNW 9 15 30.13 1020 10 16.0934 0 0
5:56 pm 17:56 Mostly Cloudy 44 6.7 38 3.3 79 79 WNW 12 19 30.14 1021 10 16.0934 0 0
6:56 pm 18:56 Cloudy 43 6.1 38 3.3 82 82 NW 10 17 30.17 1022 10 16.0934 0 0
7:56 pm 19:56 Cloudy 42 5.6 38 3.3 85 85 N 8 13 30.18 1022 10 16.0934 0 0
8:56 pm 20:56 Cloudy 41 5 38 3.3 89 89 N 5 7 30.18 1022 10 16.0934 0 0
9:56 pm 21:56 Cloudy 41 5 37 2.8 86 86 WNW 6 9 30.21 1023 10 16.0934 0 0
10:56 pm 22:56 Cloudy 41 5 37 2.8 86 86 N 6 9 30.2 1023 10 16.0934 0 0
11:56 pm 23:56 Cloudy 40 4.4 38 3.3 93 93 WNW 5 7 30.2 1023 10 16.0934 0 0

Powered by AerisWeather